Starlink 30127

operational
NORAD ID: 56699 Int'l Des: 2023-067 Owner: SPXS Country: US Constellation: starlink
LEOCIRCULAR

Über Starlink 30127

Beschreibung wird geladen...

Live-Position

3D-Globus wird geladen...

Nächste Überflüge

Höhenverlauf

Altitude vs Time

uPlot chart will show altitude changes over time

Zweizeiliger Elementsatz

1 56699U 23067M 25352.35421454 .00000122 00000-0 24123-4 0 9999
2 56699 43.0051 356.5385 0001283 273.0079 87.0617 15.02533965143429
Epoch: 18. Dez. 2025 • Age: 41 hours

Aktueller Status

Höhe 571.2 km
Geschwindigkeit 7.58 km/s
Subsatellitenpunkt -42.18°S, 158.76°E
Startdatum 19. Mai 2023
Alter 2.5 years
Typ internet

Technische Details

Klassifizierung Payload
Masse 730.00 kg
Trockenmasse 700.00 kg
Gesamtmasse 730.00 kg
Länge 0.30 m
Durchmesser 4.10 m
Spannweite 29.00 m
Form Box + pan
Hersteller SPXS
Bus-Typ Starlink V2M
Phasenstatus In Orbit
Besitzer/Staat SPXS/US

Große Konstellationen

Loading constellations...